Temperature
19 17 18 18 19 20 20 20 20 20 21 20 20 19 19 19 19 18 18 18 18 18 19 18 18 18 18 17 17 17 17 16 16 16 16 16 15 15 15 15 14 14 14 14
18 18 19 19 19 20 20 20 20 20 21 20 19 19 19 19 18 19 18 18 18 18 18 18 18 18 17 17 17 17 17 16 16 16 16 15 15 15 15 14 14 14 14 14
19 20 20 20 20 20 20 19 20 20 20 20 20 19 19 19 19 19 19 19 19 18 18 18 18 18 17 17 17 17 16 16 16 15 15 15 15 14 14 14 14 14 14 14
19 20 21 21 21 20 19 20 20 20 19 18 20 18 19 18 18 18 18 18 18 18 18 18 18 18 17 17 17 17 16 16 15 15 15 15 15 15 15 14 14 14 13 13
20 20 21 21 21 20 20 21 20 20 19 18 18 18 18 18 18 18 17 18 18 18 18 18 18 18 17 17 17 16 16 15 15 15 15 15 15 14 14 14 14 13 13 13
20 21 21 21 21 21 21 20 19 17 17 18 18 18 18 17 18 18 17 18 18 18 18 18 18 17 17 17 16 16 16 15 15 15 15 15 14 14 14 14 13 13 13 13
21 21 21 21 21 21 20 18 18 18 17 18 18 18 17 18 18 18 17 18 18 18 18 18 17 17 17 17 16 16 16 15 15 15 15 15 14 14 14 14 13 13 13 13
20 20 21 21 21 20 19 19 18 19 18 18 18 18 18 18 18 18 18 18 18 18 18 18 18 17 17 17 16 16 16 15 15 15 15 14 14 14 14 13 13 13 13 13
19 20 21 22 21 21 19 18 18 17 17 17 17 18 18 18 17 17 17 17 17 18 18 18 17 17 17 17 16 16 16 15 15 15 15 14 14 14 14 13 13 13 13 13
19 20 21 21 21 20 19 17 16 17 17 18 18 18 17 17 17 16 16 16 16 17 17 17 17 17 17 17 17 16 16 15 15 15 15 14 14 14 14 13 13 13 13 13
19 19 20 20 20 20 19 18 16 15 16 17 17 18 18 17 17 16 16 16 17 17 17 17 17 17 17 17 16 16 15 15 15 15 14 14 14 14 14 13 13 13 13 13
17 17 18 19 20 20 20 18 16 17 17 16 16 17 17 16 16 15 16 16 17 17 17 17 17 17 16 16 16 16 15 15 15 14 14 14 14 14 14 13 13 13 13 13
17 17 18 19 19 19 19 18 17 15 15 15 16 18 16 16 15 16 16 16 16 16 16 16 16 16 16 16 16 15 15 15 14 14 14 14 14 14 14 13 13 13 13 12
17 16 17 18 18 18 19 18 17 16 16 15 16 17 16 15 15 15 15 16 16 16 16 16 16 16 16 16 15 15 15 15 14 14 14 14 14 14 13 13 13 13 13 12
16 16 17 17 18 18 18 18 17 17 16 17 17 16 16 15 15 15 15 15 15 15 15 15 15 15 15 15 15 15 15 15 14 14 14 14 14 13 13 13 13 13 12 12
14 16 16 17 18 18 18 18 17 17 17 17 16 16 15 15 15 15 15 15 15 15 15 15 15 15 15 15 15 15 15 15 14 14 14 14 14 13 13 13 13 12 12 12
13 15 15 16 17 18 17 17 17 17 16 16 16 16 14 14 14 14 14 14 15 15 15 15 15 15 15 15 15 15 15 14 14 14 14 14 13 13 13 13 13 12 12 12
13 13 13 14 17 17 17 17 17 16 16 15 15 15 14 14 14 15 15 15 15 15 15 15 15 15 15 15 15 14 14 14 14 14 14 13 13 13 13 13 12 12 12 12
12 13 13 13 15 16 17 16 16 16 16 15 14 14 14 14 14 14 15 15 15 15 15 15 15 15 15 15 14 14 14 14 14 14 13 13 13 13 13 13 12 12 12 12
12 12 13 13 15 15 16 16 16 16 15 14 14 13 13 14 13 13 15 15 15 15 15 15 15 14 14 14 14 14 14 14 14 13 13 13 13 13 13 12 12 12 12 12
13 13 13 13 14 14 15 15 16 16 15 14 14 13 13 13 13 14 15 15 15 15 15 14 14 14 14 14 14 14 13 13 13 13 13 13 13 13 13 12 12 12 12 12
13 13 12 12 13 14 14 14 14 14 14 14 13 14 13 14 14 14 14 14 14 14 14 14 14 13 13 13 13 13 13 13 13 13 13 13 13 13 13 12 12 12 12 11
12 12 11 12 12 12 13 13 14 14 14 14 14 14 14 14 14 14 14 14 14 14 14 13 13 13 13 13 13 13 13 13 13 13 13 13 12 12 12 12 12 12 12 11
11 11 11 11 12 12 13 14 14 14 14 14 14 14 14 13 14 14 13 13 13 13 13 13 13 13 13 13 12 12 12 12 12 12 12 12 12 12 12 12 12 12 12 12
10 10 10 11 11 12 13 13 14 14 14 14 14 14 13 13 13 13 13 13 13 13 13 13 12 12 12 12 12 12 12 12 12 12 12 12 12 12 12 12 12 12 12 12
9 10 10 11 11 11 12 13 14 14 14 14 14 13 13 13 13 13 12 12 12 12 12 12 12 12 12 12 12 12 12 12 12 12 12 12 12 12 12 12 12 12 12 12
Wind_Speed
4 4 5 8 8 6 3 3 4 6 3 1 4 5 5 5 5 6 7 8 8 8 6 5 5 5 5 4 4 4 4 2 3 2 2 1 0 0 0 1 1 1 1 1
4 5 10 5 5 4 3 3 4 5 2 1 2 4 4 5 6 8 9 9 9 7 5 6 6 6 6 5 5 4 4 3 3 2 2 1 1 0 1 1 1 0 1 1
8 6 4 6 5 4 5 6 6 4 3 2 0 4 3 3 2 4 6 7 8 10 10 9 8 7 6 6 6 5 4 3 2 2 2 2 2 2 1 1 1 1 1 0
6 6 3 4 5 6 6 7 6 3 0 3 0 3 6 4 3 5 6 6 7 8 8 8 9 8 7 7 5 5 4 3 3 3 3 3 2 2 2 1 1 2 1 1
6 4 5 6 6 8 6 2 3 2 3 0 1 2 7 1 4 7 7 8 8 7 8 9 9 8 7 6 5 4 4 3 3 3 4 3 2 2 1 0 0 1 1 1
6 4 5 6 3 5 4 5 5 5 4 1 3 4 6 4 6 5 5 7 7 7 7 7 6 5 4 4 4 4 4 3 3 3 3 4 4 3 2 1 1 1 1 1
3 4 3 4 2 0 4 5 3 4 2 5 2 3 7 6 5 5 6 6 7 7 7 7 7 7 6 6 5 4 5 4 3 3 3 4 4 4 4 3 3 2 1 1
3 5 4 4 6 6 5 8 7 5 5 4 2 5 6 4 2 2 3 4 5 6 7 8 8 8 7 7 6 5 5 4 4 4 3 3 3 3 2 3 3 3 2 2
6 6 3 3 3 7 6 5 5 6 2 1 5 5 6 2 2 2 2 2 3 5 7 7 7 7 7 8 7 7 6 5 4 4 3 3 3 3 3 2 2 2 1 1
6 4 3 1 3 3 4 7 6 5 4 3 5 4 4 4 3 1 2 2 2 3 5 5 5 6 6 6 5 5 5 5 5 4 4 3 3 3 3 2 2 1 1 1
4 3 3 2 2 4 3 4 5 4 4 5 3 6 4 6 5 5 4 3 3 4 5 5 4 4 4 4 4 4 4 4 4 4 3 3 3 3 3 2 2 2 1 1
3 4 2 4 3 2 4 5 6 4 4 4 4 6 3 3 3 4 3 2 3 3 3 3 3 4 4 4 4 4 4 4 4 4 3 3 2 2 3 3 2 2 2 2
3 5 1 5 4 2 2 3 3 4 4 5 4 6 3 3 1 2 3 2 2 3 3 3 3 3 4 4 4 4 4 4 3 3 3 3 3 3 3 3 2 2 2 1
4 4 6 7 6 3 2 2 3 5 4 5 7 6 5 3 1 1 2 3 3 3 3 3 3 2 3 3 3 3 3 3 3 3 4 3 3 3 3 2 2 2 2 1
4 3 3 4 4 2 2 3 4 6 6 7 6 6 6 5 4 3 3 3 3 3 3 3 3 2 2 2 2 2 3 3 3 4 3 3 3 2 2 2 2 2 1 1
3 3 1 2 3 3 3 4 3 4 3 3 2 5 4 1 2 2 2 3 3 3 3 3 3 2 2 3 3 3 3 3 3 4 3 2 2 2 2 2 2 1 1 0
2 4 2 2 3 1 3 3 3 2 2 4 5 6 1 1 3 4 4 3 3 3 3 4 4 4 3 3 4 4 4 3 3 3 2 2 2 2 1 2 2 1 1 0
5 4 3 1 1 4 5 1 2 2 1 2 2 2 4 4 3 3 3 3 2 2 3 3 3 3 2 3 3 3 3 3 3 3 3 3 3 2 2 2 2 1 1 1
4 6 4 3 2 3 3 1 0 2 3 1 1 1 1 3 3 1 1 1 2 2 2 3 3 3 3 3 3 3 3 3 3 3 3 3 4 3 3 2 2 1 1 0
4 4 4 3 3 4 4 5 3 2 3 1 1 3 2 4 1 3 3 2 2 1 1 2 2 2 3 2 3 3 3 3 4 4 4 4 4 4 4 3 2 1 1 2
3 3 2 3 3 4 4 5 2 2 5 3 2 4 4 3 3 3 1 1 1 1 1 2 2 2 2 2 3 3 3 4 4 3 3 3 3 4 3 3 2 2 1 1
2 2 2 2 2 4 4 2 2 4 2 1 2 3 2 1 1 1 1 1 1 2 1 1 2 0 0 2 3 3 3 3 2 2 2 2 2 2 2 2 2 2 2 1
1 2 3 4 4 3 2 1 2 1 0 1 1 1 2 1 1 1 1 1 0 1 1 1 1 1 0 1 3 3 3 2 2 2 3 2 2 2 2 3 3 2 2 2
2 1 2 0 2 4 3 3 3 2 1 1 1 1 2 1 1 1 1 0 1 1 0 0 1 1 1 2 2 3 3 2 3 3 3 3 2 2 2 2 3 3 3 2
3 2 1 1 3 4 5 4 4 3 2 1 1 0 1 2 2 2 1 1 0 0 0 0 2 2 2 2 2 3 2 3 3 3 4 3 3 3 2 2 3 4 4 5
1 1 2 3 3 2 4 4 3 2 1 0 2 2 1 2 2 2 1 1 1 0 0 0 1 1 2 2 2 2 3 3 4 3 3 3 3 3 3 2 2 2 3 5
Wind_Direction
125 107 208 213 194 190 188 207 255 268 253 188 237 254 262 219 193 193 193 188 188 192 187 173 171 164 155 155 154 156 151 158 142 132 137 142 206 270 298 277 238 193 165 154
79 235 229 197 176 186 199 234 262 291 315 173 259 275 258 217 208 205 199 196 192 182 172 175 168 165 170 172 169 169 168 171 171 165 161 167 173 192 233 266 316 309 170 179
188 227 186 167 182 189 224 208 227 245 334 17 20 308 263 249 223 218 208 195 185 185 185 184 178 180 177 181 181 176 177 178 169 145 114 94 71 46 21 344 317 313 297 221
221 240 180 189 209 180 241 224 204 205 129 290 14 283 280 248 238 221 215 196 187 189 184 183 183 183 186 193 184 169 163 171 167 149 150 157 169 191 220 229 250 307 306 257
228 197 178 206 223 181 214 179 157 161 154 316 324 216 282 264 246 239 220 202 193 192 188 188 189 188 186 180 176 164 154 157 155 152 160 164 174 198 214 232 242 298 315 298
237 214 189 203 213 176 156 80 59 56 77 289 242 198 275 248 233 235 215 199 193 187 187 190 186 173 164 160 168 160 153 164 165 159 165 174 179 184 178 215 219 264 312 306
290 274 227 169 144 104 116 102 33 358 6 252 253 209 250 257 241 218 216 205 188 182 183 182 178 176 173 172 177 170 167 183 184 176 185 192 191 186 191 204 207 206 230 254
198 266 229 185 180 184 177 151 165 201 222 268 294 236 255 272 277 200 197 195 182 184 186 185 185 181 180 180 180 180 183 194 196 194 206 205 189 183 195 203 197 198 215 236
187 243 269 198 175 150 147 178 168 140 152 246 273 279 302 349 39 84 120 153 181 195 191 188 183 182 181 183 187 186 190 198 206 207 208 200 192 186 191 199 197 203 224 228
166 228 274 254 89 59 142 144 108 128 161 242 285 273 254 257 249 213 186 198 187 173 171 172 180 185 184 185 182 177 187 199 207 206 203 201 198 193 185 175 195 209 223 208
144 173 302 40 168 183 114 109 113 126 153 167 253 269 234 216 215 203 206 196 182 176 175 174 177 172 168 166 169 179 193 201 208 210 206 198 199 190 177 183 208 206 204 192
141 132 247 268 278 175 147 158 148 158 207 181 198 264 299 213 209 186 183 172 178 171 165 152 147 147 156 165 174 186 199 203 210 208 198 196 196 182 180 199 208 189 186 196
129 115 65 337 343 26 99 142 150 133 131 169 189 259 359 33 56 145 154 160 155 140 136 129 132 149 166 171 176 184 198 206 207 195 188 186 191 191 197 208 206 187 182 186
119 126 172 205 220 199 214 216 181 153 178 208 220 242 300 328 319 298 160 157 146 136 133 143 158 175 182 178 177 183 195 194 186 178 174 181 197 203 206 200 193 188 184 181
98 155 208 237 246 195 233 247 208 198 202 204 230 226 248 242 221 200 163 142 135 141 150 169 182 191 184 175 176 177 184 186 183 172 174 190 191 184 180 180 184 178 182 198
81 154 174 275 246 226 259 273 236 224 223 224 239 256 263 240 134 130 141 148 163 184 197 199 191 187 193 184 180 179 182 186 173 177 189 176 157 161 169 179 166 160 191 192
131 145 143 250 288 4 269 249 202 198 207 183 218 242 181 161 170 167 169 165 194 209 206 200 198 201 205 202 187 189 194 176 164 172 178 163 156 158 164 164 155 176 208 172
148 134 136 165 128 223 239 314 143 158 262 234 232 219 181 195 187 165 152 171 199 211 209 206 202 205 202 183 177 179 167 163 165 168 174 166 164 173 167 153 169 197 222 212
157 142 130 137 178 258 290 335 83 195 267 243 179 151 70 74 55 4 323 187 210 210 214 209 196 195 183 172 168 150 153 163 166 178 187 189 179 179 180 185 197 204 183 204
81 104 121 134 163 221 253 305 304 142 269 300 140 155 130 99 123 263 294 322 323 15 107 171 163 151 161 171 152 153 170 172 195 203 200 195 187 182 191 203 202 204 193 214
55 57 123 159 199 255 291 314 33 152 256 278 184 163 155 169 208 240 274 324 3 56 77 115 126 146 182 168 152 165 191 214 216 200 189 190 191 188 190 189 194 194 188 187
154 142 163 146 183 258 324 32 158 237 281 182 173 171 162 163 120 131 145 110 79 70 58 87 91 91 219 161 153 168 214 230 197 168 182 199 206 201 188 186 197 191 175 184
142 183 179 184 209 265 291 242 269 233 285 259 197 182 143 121 161 158 166 162 140 127 125 131 137 137 275 190 165 196 230 203 179 177 195 200 203 205 191 197 197 195 191 201
328 21 114 327 306 317 328 344 352 4 311 290 174 159 148 169 178 157 152 210 0 67 140 136 134 159 260 251 220 229 234 177 183 195 207 200 194 210 207 203 199 197 208 214
291 355 45 316 309 340 342 343 344 357 14 56 58 90 175 165 179 172 170 188 175 127 253 179 177 201 240 261 262 251 220 179 189 205 211 206 207 208 215 222 219 213 218 210
296 194 181 232 249 239 278 306 337 15 9 40 75 46 30 160 167 149 155 175 153 142 313 203 200 219 253 257 273 259 222 198 196 207 213 208 210 213 209 220 268 255 232 232
Height
1479 1486 1490 1487 1485 1486 1488 1491 1493 1487 1481 1484 1486 1485 1482 1481 1481 1482 1483 1485 1486 1488 1491 1493 1496 1497 1499 1500 1501 1502 1502 1503 1504 1503 1504 1504 1505 1505 1506 1507 1507 1507 1507 1507
1484 1486 1478 1479 1482 1484 1487 1492 1492 1486 1480 1483 1486 1485 1480 1479 1479 1479 1480 1482 1484 1486 1489 1491 1493 1495 1497 1498 1499 1500 1501 1502 1502 1502 1502 1503 1503 1504 1504 1505 1505 1505 1505 1505
1481 1477 1473 1478 1482 1485 1487 1490 1489 1488 1484 1483 1486 1488 1481 1478 1478 1478 1479 1480 1481 1483 1485 1488 1490 1492 1494 1495 1496 1498 1499 1500 1500 1501 1501 1502 1502 1502 1503 1503 1503 1503 1503 1503
1476 1471 1472 1476 1479 1481 1488 1479 1481 1484 1491 1497 1491 1502 1484 1478 1478 1477 1477 1477 1478 1481 1483 1485 1487 1489 1491 1493 1495 1496 1497 1497 1498 1499 1500 1500 1500 1500 1500 1501 1501 1501 1501 1502
1473 1469 1471 1475 1474 1475 1478 1474 1479 1483 1491 1497 1495 1500 1490 1480 1479 1475 1474 1474 1476 1479 1481 1483 1485 1487 1489 1491 1493 1494 1495 1496 1497 1498 1498 1499 1499 1499 1499 1500 1500 1500 1500 1500
1466 1464 1465 1467 1466 1469 1471 1478 1483 1491 1497 1505 1496 1501 1495 1483 1476 1472 1471 1472 1475 1477 1479 1481 1484 1486 1488 1490 1492 1493 1494 1494 1496 1496 1497 1497 1497 1497 1497 1498 1498 1498 1498 1498
1469 1465 1462 1462 1468 1470 1473 1489 1504 1506 1512 1507 1492 1495 1491 1473 1469 1469 1469 1470 1472 1474 1477 1479 1481 1483 1485 1487 1490 1492 1492 1493 1494 1494 1495 1495 1495 1495 1495 1496 1496 1496 1496 1496
1477 1476 1462 1460 1464 1470 1475 1483 1502 1510 1512 1504 1494 1494 1481 1469 1467 1467 1468 1469 1471 1472 1474 1476 1479 1481 1483 1485 1488 1490 1491 1492 1492 1493 1493 1493 1494 1494 1494 1495 1495 1495 1495 1495
1476 1474 1458 1456 1457 1462 1473 1480 1480 1494 1499 1505 1498 1487 1475 1467 1467 1467 1467 1468 1469 1471 1473 1475 1477 1479 1481 1484 1486 1488 1489 1490 1491 1492 1492 1492 1492 1493 1493 1493 1493 1494 1494 1494
1464 1471 1460 1457 1458 1461 1465 1473 1486 1495 1504 1507 1497 1491 1485 1473 1470 1468 1468 1469 1469 1471 1472 1474 1476 1478 1480 1482 1484 1486 1488 1489 1490 1490 1490 1490 1491 1491 1491 1492 1492 1492 1493 1493
1460 1469 1466 1462 1464 1466 1470 1475 1482 1492 1493 1502 1505 1493 1469 1468 1466 1467 1467 1468 1469 1470 1471 1473 1475 1477 1479 1481 1482 1484 1486 1487 1488 1489 1489 1489 1489 1490 1490 1491 1491 1492 1492 1492
1460 1469 1475 1467 1459 1458 1462 1470 1479 1488 1492 1495 1498 1489 1464 1463 1463 1465 1466 1468 1469 1470 1471 1473 1474 1476 1478 1479 1481 1483 1484 1486 1487 1487 1488 1488 1488 1489 1489 1490 1490 1491 1491 1491
1459 1470 1480 1477 1472 1465 1466 1468 1472 1479 1488 1495 1495 1483 1464 1463 1464 1464 1466 1467 1468 1470 1471 1472 1474 1475 1477 1478 1480 1481 1483 1484 1485 1486 1486 1487 1487 1488 1488 1489 1489 1489 1490 1489
1455 1467 1475 1479 1474 1467 1467 1467 1470 1476 1486 1488 1483 1475 1468 1466 1465 1464 1465 1467 1468 1469 1471 1472 1473 1475 1476 1477 1479 1480 1481 1482 1483 1484 1485 1485 1486 1486 1487 1488 1488 1488 1488 1488
1456 1467 1466 1465 1461 1462 1464 1465 1466 1469 1471 1476 1472 1471 1466 1464 1464 1464 1465 1466 1468 1469 1470 1471 1472 1473 1474 1476 1477 1479 1480 1481 1482 1483 1483 1484 1485 1485 1486 1487 1487 1487 1487 1487
1459 1465 1466 1466 1461 1462 1464 1463 1463 1464 1465 1467 1467 1467 1461 1461 1463 1464 1465 1466 1467 1468 1470 1471 1471 1472 1473 1474 1476 1478 1479 1480 1481 1482 1482 1483 1484 1484 1485 1485 1486 1486 1486 1486
1463 1466 1470 1472 1464 1463 1470 1462 1462 1463 1462 1464 1466 1463 1461 1461 1462 1463 1465 1466 1467 1468 1469 1470 1470 1471 1472 1473 1475 1476 1478 1479 1480 1481 1481 1482 1483 1483 1484 1484 1485 1485 1485 1485
1462 1467 1473 1475 1470 1477 1468 1457 1457 1459 1460 1460 1459 1459 1459 1459 1460 1462 1463 1465 1466 1467 1468 1469 1469 1470 1471 1472 1473 1475 1477 1478 1479 1479 1480 1481 1482 1482 1483 1483 1483 1484 1484 1484
1457 1464 1472 1478 1476 1472 1463 1458 1458 1460 1461 1458 1458 1458 1459 1460 1461 1463 1463 1464 1465 1466 1467 1467 1468 1469 1470 1471 1472 1473 1475 1476 1477 1478 1479 1480 1480 1481 1482 1482 1482 1482 1483 1483
1458 1461 1469 1475 1475 1476 1466 1456 1454 1457 1462 1457 1457 1458 1459 1460 1465 1464 1463 1463 1464 1465 1466 1467 1467 1468 1469 1470 1471 1473 1473 1474 1475 1477 1477 1478 1479 1480 1480 1481 1481 1481 1482 1482
1465 1467 1471 1474 1474 1470 1461 1456 1454 1465 1464 1456 1456 1456 1457 1459 1461 1462 1462 1463 1464 1465 1465 1466 1466 1467 1468 1469 1470 1471 1472 1473 1474 1475 1476 1477 1478 1478 1479 1480 1480 1480 1480 1480
1467 1470 1472 1474 1475 1473 1459 1458 1461 1461 1455 1454 1455 1455 1456 1458 1459 1460 1461 1462 1463 1464 1465 1465 1465 1466 1467 1468 1469 1469 1471 1472 1473 1474 1474 1475 1476 1477 1478 1478 1479 1479 1479 1479
1466 1467 1468 1470 1471 1463 1460 1459 1458 1456 1455 1454 1454 1455 1456 1457 1458 1459 1460 1461 1462 1463 1463 1464 1465 1465 1466 1467 1467 1468 1469 1470 1471 1472 1473 1473 1474 1475 1476 1476 1477 1477 1477 1477
1465 1463 1465 1466 1464 1461 1459 1458 1457 1456 1455 1454 1455 1455 1455 1456 1457 1458 1459 1460 1460 1461 1462 1462 1463 1463 1464 1465 1466 1467 1467 1468 1469 1470 1471 1472 1472 1473 1474 1474 1475 1475 1475 1474
1467 1465 1466 1466 1463 1461 1459 1459 1457 1456 1455 1455 1454 1455 1455 1455 1456 1456 1457 1459 1459 1459 1460 1461 1461 1462 1463 1464 1464 1465 1466 1467 1467 1468 1469 1469 1470 1470 1471 1472 1472 1472 1473 1473
1467 1467 1467 1466 1462 1463 1460 1459 1458 1456 1455 1455 1454 1454 1455 1455 1455 1456 1457 1458 1458 1459 1459 1459 1460 1461 1461 1462 1462 1463 1464 1465 1465 1465 1466 1466 1467 1468 1468 1469 1470 1470 1471 1471